| time (UTC) | temp F | wind direction | speed MPH | gust MPH | rain 1hr in | rain 24hr in | rain mn in | humidity % | barometer mb |
| 20260507191535 | 67 | 317 | 3.0 | 18.0 | 0.00 | 0.00 | 0.00 | 49 | 1013.7 |
| 20260507191023 | 67 | 166 | 2.0 | 18.0 | 0.00 | 0.00 | 0.00 | 50 | 1013.8 |
| 20260507190524 | 67 | 245 | 5.0 | 12.0 | 0.00 | 0.00 | 0.00 | 47 | 1013.8 |
| 20260507190035 | 68 | 236 | 2.0 | 13.0 | 0.00 | 0.00 | 0.00 | 49 | 1013.8 |
| 20260507185523 | 67 | 238 | 3.0 | 16.0 | 0.00 | 0.00 | 0.00 | 51 | 1013.8 |
| 20260507185025 | 66 | 0 | 4.0 | 16.0 | 0.00 | 0.00 | 0.00 | 49 | 1013.8 |
| 20260507184554 | 67 | 211 | 3.0 | 12.0 | 0.00 | 0.00 | 0.00 | 50 | 1013.9 |
| 20260507184024 | 66 | 333 | 3.0 | 11.0 | 0.00 | 0.00 | 0.00 | 51 | 1013.9 |
| 20260507183525 | 66 | 186 | 4.0 | 11.0 | 0.00 | 0.00 | 0.00 | 50 | 1014.1 |
| 20260507183042 | 66 | 251 | 2.0 | 10.0 | 0.00 | 0.00 | 0.00 | 51 | 1014.2 |
| 20260507182525 | 66 | 334 | 3.0 | 17.0 | 0.00 | 0.00 | 0.00 | 51 | 1014.2 |
| 20260507182025 | 65 | 292 | 3.0 | 17.0 | 0.00 | 0.00 | 0.00 | 51 | 1014.5 |
| 20260507181539 | 66 | 319 | 3.0 | 14.0 | 0.00 | 0.00 | 0.00 | 53 | 1014.5 |
| 20260507181027 | 65 | 279 | 4.0 | 13.0 | 0.00 | 0.00 | 0.00 | 52 | 1014.6 |
| 20260507180524 | 65 | 248 | 3.0 | 11.0 | 0.00 | 0.00 | 0.00 | 53 | 1014.7 |
| 20260507180034 | 65 | 252 | 3.0 | 11.0 | 0.00 | 0.00 | 0.00 | 52 | 1014.8 |
| 20260507175525 | 65 | 281 | 2.0 | 12.0 | 0.00 | 0.00 | 0.00 | 52 | 1014.7 |
| 20260507175024 | 65 | 297 | 2.0 | 12.0 | 0.00 | 0.00 | 0.00 | 53 | 1014.8 |
| 20260507174536 | 65 | 317 | 2.0 | 11.0 | 0.00 | 0.00 | 0.00 | 52 | 1014.9 |
| 20260507174025 | 64 | 169 | 2.0 | 16.0 | 0.00 | 0.00 | 0.00 | 54 | 1015.0 |
| 20260507173523 | 63 | 193 | 5.0 | 16.0 | 0.00 | 0.00 | 0.00 | 52 | 1015.1 |
| 20260507173043 | 63 | 0 | 2.0 | 14.0 | 0.00 | 0.00 | 0.00 | 54 | 1015.3 |
| 20260507172525 | 62 | 103 | 5.0 | 14.0 | 0.00 | 0.00 | 0.00 | 54 | 1015.4 |
| 20260507172025 | 63 | 193 | 2.0 | 14.0 | 0.00 | 0.00 | 0.00 | 55 | 1015.4 |
| 20260507171536 | 63 | 329 | 2.0 | 11.0 | 0.00 | 0.00 | 0.00 | 55 | 1015.3 |
| 20260507171026 | 62 | 0 | 3.0 | 14.0 | 0.00 | 0.00 | 0.00 | 56 | 1015.4 |
| 20260507170526 | 62 | 305 | 4.0 | 14.0 | 0.00 | 0.00 | 0.00 | 56 | 1015.5 |
| 20260507170035 | 62 | 290 | 3.0 | 12.0 | 0.00 | 0.00 | 0.00 | 56 | 1015.6 |
| 20260507165523 | 62 | 269 | 2.0 | 12.0 | 0.00 | 0.00 | 0.00 | 55 | 1015.6 |
| 20260507165024 | 62 | 292 | 4.0 | 12.0 | 0.00 | 0.00 | 0.00 | 57 | 1015.7 |
| 20260507164543 | 63 | 261 | 2.0 | 11.0 | 0.00 | 0.00 | 0.00 | 57 | 1015.7 |
| 20260507164024 | 62 | 5 | 2.0 | 10.0 | 0.00 | 0.00 | 0.00 | 56 | 1015.8 |
| 20260507163526 | 62 | 184 | 2.0 | 14.0 | 0.00 | 0.00 | 0.00 | 54 | 1015.9 |
| 20260507163037 | 62 | 315 | 2.0 | 14.0 | 0.00 | 0.00 | 0.00 | 56 | 1016.0 |
| 20260507162525 | 62 | 302 | 1.0 | 12.0 | 0.00 | 0.00 | 0.00 | 58 | 1016.1 |
| 20260507162025 | 61 | 5 | 2.0 | 9.0 | 0.00 | 0.00 | 0.00 | 59 | 1016.0 |
| 20260507161547 | 60 | 157 | 2.0 | 9.0 | 0.00 | 0.00 | 0.00 | 58 | 1016.2 |
| 20260507161025 | 62 | 109 | 1.0 | 10.0 | 0.00 | 0.00 | 0.00 | 58 | 1016.2 |
| 20260507160528 | 62 | 157 | 1.0 | 10.0 | 0.00 | 0.00 | 0.00 | 57 | 1016.1 |
| 20260507160036 | 62 | 295 | 1.0 | 9.0 | 0.00 | 0.00 | 0.00 | 56 | 1016.3 |
| 20260507155524 | 61 | 0 | 1.0 | 9.0 | 0.00 | 0.00 | 0.00 | 60 | 1016.3 |
| 20260507155026 | 60 | 0 | 2.0 | 9.0 | 0.00 | 0.00 | 0.00 | 57 | 1016.3 |
| 20260507154537 | 61 | 315 | 1.0 | 8.0 | 0.00 | 0.00 | 0.00 | 58 | 1016.2 |
| 20260507154025 | 60 | 279 | 1.0 | 8.0 | 0.00 | 0.00 | 0.00 | 57 | 1016.1 |
| 20260507153525 | 60 | 292 | 1.0 | 17.0 | 0.00 | 0.00 | 0.00 | 60 | 1016.4 |
| 20260507153035 | 59 | 294 | 3.0 | 17.0 | 0.00 | 0.00 | 0.00 | 61 | 1016.5 |
| 20260507152524 | 60 | 302 | 1.0 | 12.0 | 0.00 | 0.00 | 0.00 | 61 | 1016.5 |
| 20260507152024 | 59 | 329 | 3.0 | 12.0 | 0.00 | 0.00 | 0.00 | 61 | 1016.5 |
| 20260507151535 | 59 | 0 | 2.0 | 9.0 | 0.00 | 0.00 | 0.00 | 59 | 1016.6 |
| 20260507151025 | 60 | 311 | 0.0 | 10.0 | 0.00 | 0.00 | 0.00 | 63 | 1016.6 |
| 20260507150526 | 58 | 0 | 2.0 | 10.0 | 0.00 | 0.00 | 0.00 | 62 | 1016.6 |
| 20260507150039 | 59 | 211 | 1.0 | 6.0 | 0.00 | 0.00 | 0.00 | 61 | 1016.8 |
| 20260507145524 | 59 | 0 | 0.0 | 10.0 | 0.00 | 0.00 | 0.00 | 63 | 1016.7 |
| 20260507145028 | 58 | 351 | 2.0 | 10.0 | 0.00 | 0.00 | 0.00 | 62 | 1016.8 |
| 20260507144537 | 58 | 0 | 1.0 | 10.0 | 0.00 | 0.00 | 0.00 | 65 | 1016.9 |
| 20260507144025 | 57 | 0 | 1.0 | 10.0 | 0.00 | 0.00 | 0.00 | 66 | 1016.9 |
| 20260507143526 | 57 | 0 | 2.0 | 10.0 | 0.00 | 0.00 | 0.00 | 64 | 1016.9 |
| 20260507143055 | 57 | 280 | 1.0 | 9.0 | 0.00 | 0.00 | 0.00 | 65 | 1016.8 |
| 20260507142527 | 57 | 0 | 1.0 | 14.0 | 0.00 | 0.00 | 0.00 | 67 | 1016.8 |
| 20260507142025 | 56 | 278 | 0.0 | 14.0 | 0.00 | 0.00 | 0.00 | 68 | 1016.9 |
| 20260507141600 | 56 | 281 | 1.0 | 6.0 | 0.00 | 0.00 | 0.00 | 68 | 1017.0 |
| 20260507141025 | 55 | 0 | 1.0 | 8.0 | 0.00 | 0.00 | 0.00 | 69 | 1017.0 |
| 20260507140525 | 55 | 0 | 0.0 | 8.0 | 0.00 | 0.00 | 0.00 | 70 | 1016.9 |
| 20260507140041 | 55 | 163 | 0.0 | 8.0 | 0.00 | 0.00 | 0.00 | 69 | 1017.0 |
| 20260507135525 | 54 | 0 | 1.0 | 11.0 | 0.00 | 0.00 | 0.00 | 71 | 1017.1 |
| 20260507135025 | 54 | 301 | 0.0 | 11.0 | 0.00 | 0.00 | 0.00 | 72 | 1017.2 |
| 20260507134535 | 53 | 308 | 1.0 | 11.0 | 0.00 | 0.00 | 0.00 | 72 | 1017.2 |
| 20260507134029 | 53 | 0 | 0.0 | 4.0 | 0.00 | 0.00 | 0.00 | 73 | 1017.2 |
| 20260507133528 | 52 | 248 | 0.0 | 7.0 | 0.00 | 0.00 | 0.00 | 75 | 1017.1 |
| 20260507133037 | 52 | 0 | 0.0 | 7.0 | 0.00 | 0.00 | 0.00 | 75 | 1017.1 |
| 20260507132524 | 52 | 0 | 0.0 | 7.0 | 0.00 | 0.00 | 0.00 | 76 | 1017.2 |
| 20260507132024 | 51 | 0 | 0.0 | 4.0 | 0.00 | 0.00 | 0.00 | 78 | 1017.0 |
| 20260507131541 | 51 | 0 | 0.0 | 4.0 | 0.00 | 0.00 | 0.00 | 78 | 1017.1 |
| 20260507131028 | 50 | 0 | 0.0 | 2.0 | 0.00 | 0.00 | 0.00 | 80 | 1017.2 |
| 20260507130527 | 49 | 0 | 0.0 | 2.0 | 0.00 | 0.00 | 0.00 | 81 | 1017.2 |
| 20260507130045 | 49 | 0 | 0.0 | 2.0 | 0.00 | 0.00 | 0.00 | 81 | 1017.2 |
| 20260507125525 | 49 | 0 | 0.0 | 4.0 | 0.00 | 0.00 | 0.00 | 82 | 1017.2 |
| 20260507125027 | 48 | 0 | 0.0 | 4.0 | 0.00 | 0.00 | 0.00 | 83 | 1017.2 |
| 20260507124540 | 47 | 0 | 0.0 | 2.0 | 0.00 | 0.00 | 0.00 | 84 | 1017.3 |
| 20260507124025 | 47 | 0 | 0.0 | 0.0 | 0.00 | 0.00 | 0.00 | 85 | 1017.4 |
| 20260507123525 | 46 | 0 | 0.0 | 0.0 | 0.00 | 0.00 | 0.00 | 86 | 1017.4 |
| 20260507123040 | 46 | 0 | 0.0 | 2.0 | 0.00 | 0.00 | 0.00 | 86 | 1017.4 |
| 20260507122524 | 46 | 0 | 0.0 | 2.0 | 0.00 | 0.00 | 0.00 | 87 | 1017.4 |
| 20260507122024 | 45 | 0 | 0.0 | 0.0 | 0.00 | 0.00 | 0.00 | 87 | 1017.3 |
| 20260507121542 | 45 | 0 | 0.0 | 0.0 | 0.00 | 0.00 | 0.00 | 87 | 1017.3 |
| 20260507121025 | 44 | 0 | 0.0 | 0.0 | 0.00 | 0.00 | 0.00 | 87 | 1017.2 |
| 20260507120529 | 44 | 0 | 0.0 | 0.0 | 0.00 | 0.00 | 0.00 | 87 | 1017.3 |
| 20260507120036 | 44 | 0 | 0.0 | 0.0 | 0.00 | 0.00 | 0.00 | 87 | 1017.2 |
| 20260507115525 | 44 | 0 | 0.0 | 0.0 | 0.00 | 0.00 | 0.00 | 87 | 1017.2 |
| 20260507115026 | 44 | 0 | 0.0 | 0.0 | 0.00 | 0.00 | 0.00 | 87 | 1017.2 |
| 20260507114541 | 43 | 0 | 0.0 | 0.0 | 0.00 | 0.00 | 0.00 | 87 | 1017.2 |
| 20260507114026 | 43 | 0 | 0.0 | 0.0 | 0.00 | 0.00 | 0.00 | 87 | 1017.3 |
| 20260507113528 | 43 | 0 | 0.0 | 0.0 | 0.00 | 0.00 | 0.00 | 87 | 1017.2 |
| 20260507113037 | 43 | 0 | 0.0 | 0.0 | 0.00 | 0.00 | 0.00 | 86 | 1017.2 |
| 20260507112524 | 43 | 0 | 0.0 | 0.0 | 0.00 | 0.00 | 0.00 | 86 | 1017.2 |
| 20260507112025 | 43 | 0 | 0.0 | 0.0 | 0.00 | 0.00 | 0.00 | 86 | 1017.1 |
| 20260507111536 | 43 | 0 | 0.0 | 0.0 | 0.00 | 0.00 | 0.00 | 86 | 1017.1 |
| 20260507111024 | 43 | 0 | 0.0 | 0.0 | 0.00 | 0.00 | 0.00 | 86 | 1017.1 |
| 20260507110523 | 43 | 0 | 0.0 | 0.0 | 0.00 | 0.00 | 0.00 | 86 | 1017.1 |
| 20260507110037 | 43 | 0 | 0.0 | 0.0 | 0.00 | 0.00 | 0.00 | 86 | 1017.1 |
| 20260507105526 | 43 | 0 | 0.0 | 0.0 | 0.00 | 0.00 | 0.00 | 86 | 1017.0 |
| 20260507105024 | 43 | 0 | 0.0 | 0.0 | 0.00 | 0.00 | 0.00 | 86 | 1017.0 |
| 20260507104539 | 43 | 0 | 0.0 | 0.0 | 0.00 | 0.00 | 0.00 | 86 | 1017.0 |
| 20260507104025 | 43 | 0 | 0.0 | 0.0 | 0.00 | 0.00 | 0.00 | 86 | 1017.1 |
| 20260507103525 | 43 | 0 | 0.0 | 0.0 | 0.00 | 0.00 | 0.00 | 86 | 1017.0 |
| 20260507103039 | 43 | 0 | 0.0 | 0.0 | 0.00 | 0.00 | 0.00 | 86 | 1017.1 |
| 20260507102525 | 43 | 0 | 0.0 | 0.0 | 0.00 | 0.00 | 0.00 | 86 | 1017.1 |
| 20260507102023 | 44 | 0 | 0.0 | 0.0 | 0.00 | 0.00 | 0.00 | 85 | 1017.1 |
| 20260507101537 | 44 | 0 | 0.0 | 0.0 | 0.00 | 0.00 | 0.00 | 85 | 1017.1 |
| 20260507101028 | 44 | 0 | 0.0 | 0.0 | 0.00 | 0.00 | 0.00 | 85 | 1017.1 |
| 20260507100525 | 44 | 0 | 0.0 | 0.0 | 0.00 | 0.00 | 0.00 | 85 | 1017.2 |
| 20260507100046 | 44 | 0 | 0.0 | 0.0 | 0.00 | 0.00 | 0.00 | 85 | 1017.2 |
| 20260507095528 | 44 | 0 | 0.0 | 0.0 | 0.00 | 0.00 | 0.00 | 85 | 1017.1 |
| 20260507095026 | 44 | 0 | 0.0 | 0.0 | 0.00 | 0.00 | 0.00 | 85 | 1017.3 |
| 20260507094537 | 44 | 0 | 0.0 | 0.0 | 0.00 | 0.00 | 0.00 | 85 | 1017.1 |
| 20260507094026 | 44 | 0 | 0.0 | 0.0 | 0.00 | 0.00 | 0.00 | 84 | 1017.2 |
| 20260507093525 | 44 | 0 | 0.0 | 0.0 | 0.00 | 0.00 | 0.00 | 84 | 1017.2 |
| 20260507093037 | 44 | 0 | 0.0 | 0.0 | 0.00 | 0.00 | 0.00 | 84 | 1017.2 |
| 20260507092522 | 44 | 0 | 0.0 | 0.0 | 0.00 | 0.00 | 0.00 | 83 | 1017.4 |
| 20260507092027 | 44 | 0 | 0.0 | 0.0 | 0.00 | 0.00 | 0.00 | 83 | 1017.3 |
| 20260507091541 | 44 | 0 | 0.0 | 0.0 | 0.00 | 0.00 | 0.00 | 83 | 1017.3 |
| 20260507091022 | 44 | 0 | 0.0 | 0.0 | 0.00 | 0.00 | 0.00 | 83 | 1017.3 |
| 20260507090524 | 44 | 0 | 0.0 | 0.0 | 0.00 | 0.00 | 0.00 | 82 | 1017.4 |
| 20260507090044 | 44 | 0 | 0.0 | 0.0 | 0.00 | 0.00 | 0.00 | 82 | 1017.4 |
| 20260507085524 | 44 | 0 | 0.0 | 0.0 | 0.00 | 0.00 | 0.00 | 81 | 1017.4 |
| 20260507085023 | 44 | 0 | 0.0 | 0.0 | 0.00 | 0.00 | 0.00 | 81 | 1017.5 |
| 20260507084548 | 44 | 0 | 0.0 | 0.0 | 0.00 | 0.00 | 0.00 | 81 | 1017.5 |
| 20260507084025 | 44 | 0 | 0.0 | 0.0 | 0.00 | 0.00 | 0.00 | 81 | 1017.6 |
| 20260507083522 | 44 | 0 | 0.0 | 0.0 | 0.00 | 0.00 | 0.00 | 80 | 1017.7 |
| 20260507083035 | 45 | 0 | 0.0 | 0.0 | 0.00 | 0.00 | 0.00 | 80 | 1017.7 |
| 20260507082523 | 45 | 0 | 0.0 | 0.0 | 0.00 | 0.00 | 0.00 | 79 | 1017.7 |
| 20260507082024 | 45 | 0 | 0.0 | 0.0 | 0.00 | 0.00 | 0.00 | 79 | 1017.6 |
| 20260507081534 | 45 | 0 | 0.0 | 0.0 | 0.00 | 0.00 | 0.00 | 79 | 1017.6 |
| 20260507081023 | 45 | 0 | 0.0 | 0.0 | 0.00 | 0.00 | 0.00 | 78 | 1017.6 |
| 20260507080523 | 45 | 0 | 0.0 | 0.0 | 0.00 | 0.00 | 0.00 | 78 | 1017.5 |
| 20260507080041 | 45 | 0 | 0.0 | 0.0 | 0.00 | 0.00 | 0.00 | 77 | 1017.6 |
| 20260507075522 | 45 | 0 | 0.0 | 0.0 | 0.00 | 0.00 | 0.00 | 76 | 1017.6 |
| 20260507075021 | 46 | 0 | 0.0 | 0.0 | 0.00 | 0.00 | 0.00 | 76 | 1017.6 |
| 20260507074538 | 46 | 0 | 0.0 | 0.0 | 0.00 | 0.00 | 0.00 | 75 | 1017.5 |
| 20260507074023 | 46 | 0 | 0.0 | 0.0 | 0.00 | 0.00 | 0.00 | 75 | 1017.6 |
| 20260507073524 | 46 | 0 | 0.0 | 0.0 | 0.00 | 0.00 | 0.00 | 75 | 1017.5 |
| 20260507073036 | 46 | 0 | 0.0 | 0.0 | 0.00 | 0.00 | 0.00 | 74 | 1017.6 |
| 20260507072526 | 46 | 0 | 0.0 | 0.0 | 0.00 | 0.00 | 0.00 | 74 | 1017.6 |
| 20260507072023 | 46 | 0 | 0.0 | 0.0 | 0.00 | 0.00 | 0.00 | 73 | 1017.6 |
| 20260507071537 | 46 | 0 | 0.0 | 0.0 | 0.00 | 0.00 | 0.00 | 73 | 1017.7 |
| 20260507071027 | 46 | 0 | 0.0 | 0.0 | 0.00 | 0.00 | 0.00 | 73 | 1017.8 |
| 20260507070523 | 46 | 0 | 0.0 | 0.0 | 0.00 | 0.00 | 0.00 | 72 | 1017.8 |
| 20260507070041 | 46 | 0 | 0.0 | 0.0 | 0.00 | 0.00 | 0.00 | 72 | 1018.0 |
| 20260507065521 | 47 | 0 | 0.0 | 0.0 | 0.00 | 0.00 | 0.00 | 72 | 1018.1 |
| 20260507065023 | 47 | 0 | 0.0 | 0.0 | 0.00 | 0.00 | 0.00 | 72 | 1018.1 |
| 20260507064558 | 47 | 0 | 0.0 | 0.0 | 0.00 | 0.00 | 0.00 | 71 | 1018.1 |
| 20260507064023 | 47 | 0 | 0.0 | 0.0 | 0.00 | 0.00 | 0.00 | 70 | 1018.1 |
| 20260507063522 | 47 | 0 | 0.0 | 0.0 | 0.00 | 0.00 | 0.00 | 70 | 1018.3 |
| 20260507063037 | 47 | 0 | 0.0 | 0.0 | 0.00 | 0.00 | 0.00 | 69 | 1018.3 |
| 20260507062525 | 48 | 0 | 0.0 | 0.0 | 0.00 | 0.00 | 0.00 | 69 | 1018.3 |
| 20260507062023 | 48 | 0 | 0.0 | 0.0 | 0.00 | 0.00 | 0.00 | 68 | 1018.3 |
| 20260507061536 | 48 | 0 | 0.0 | 0.0 | 0.00 | 0.00 | 0.00 | 69 | 1018.3 |
| 20260507061020 | 48 | 0 | 0.0 | 0.0 | 0.00 | 0.00 | 0.00 | 69 | 1018.5 |
| 20260507060524 | 48 | 0 | 0.0 | 0.0 | 0.00 | 0.00 | 0.00 | 68 | 1018.3 |
| 20260507060041 | 48 | 0 | 0.0 | 0.0 | 0.00 | 0.00 | 0.00 | 69 | 1018.4 |
| 20260507055522 | 48 | 0 | 0.0 | 0.0 | 0.00 | 0.00 | 0.00 | 69 | 1018.4 |
| 20260507055028 | 48 | 0 | 0.0 | 0.0 | 0.00 | 0.00 | 0.00 | 70 | 1018.4 |
| 20260507054536 | 48 | 0 | 0.0 | 0.0 | 0.00 | 0.00 | 0.00 | 71 | 1018.4 |
| 20260507054024 | 48 | 0 | 0.0 | 0.0 | 0.00 | 0.00 | 0.00 | 73 | 1018.5 |
| 20260507053521 | 47 | 0 | 0.0 | 0.0 | 0.00 | 0.00 | 0.00 | 75 | 1018.4 |
| 20260507053037 | 47 | 0 | 0.0 | 0.0 | 0.00 | 0.00 | 0.00 | 77 | 1018.4 |
| 20260507052524 | 47 | 0 | 0.0 | 0.0 | 0.00 | 0.00 | 0.00 | 79 | 1018.5 |
| 20260507052021 | 47 | 0 | 0.0 | 0.0 | 0.00 | 0.00 | 0.00 | 80 | 1018.6 |
| 20260507051545 | 47 | 0 | 0.0 | 0.0 | 0.00 | 0.00 | 0.00 | 81 | 1018.5 |
| 20260507051024 | 46 | 0 | 0.0 | 0.0 | 0.00 | 0.00 | 0.00 | 81 | 1018.5 |
| 20260507050521 | 46 | 0 | 0.0 | 0.0 | 0.00 | 0.00 | 0.00 | 81 | 1018.5 |
| 20260507050044 | 46 | 0 | 0.0 | 0.0 | 0.00 | 0.00 | 0.00 | 81 | 1018.5 |
| 20260507045524 | 46 | 0 | 0.0 | 0.0 | 0.00 | 0.00 | 0.00 | 81 | 1018.5 |
| 20260507045027 | 46 | 0 | 0.0 | 0.0 | 0.00 | 0.00 | 0.00 | 80 | 1018.4 |
| 20260507044535 | 46 | 0 | 0.0 | 0.0 | 0.00 | 0.00 | 0.00 | 80 | 1018.5 |
| 20260507044023 | 46 | 0 | 0.0 | 0.0 | 0.00 | 0.00 | 0.00 | 80 | 1018.5 |
| 20260507043523 | 46 | 0 | 0.0 | 0.0 | 0.00 | 0.00 | 0.00 | 79 | 1018.4 |
| 20260507043035 | 46 | 0 | 0.0 | 0.0 | 0.00 | 0.00 | 0.00 | 79 | 1018.6 |
| 20260507042523 | 46 | 0 | 0.0 | 0.0 | 0.00 | 0.00 | 0.00 | 78 | 1018.6 |
| 20260507042024 | 47 | 0 | 0.0 | 0.0 | 0.00 | 0.00 | 0.00 | 77 | 1018.6 |
| 20260507041537 | 47 | 0 | 0.0 | 0.0 | 0.00 | 0.00 | 0.00 | 77 | 1018.5 |
| 20260507041027 | 47 | 0 | 0.0 | 0.0 | 0.00 | 0.00 | 0.00 | 77 | 1018.5 |
| 20260507040522 | 47 | 0 | 0.0 | 0.0 | 0.00 | 0.00 | 0.00 | 76 | 1018.5 |
| 20260507040038 | 47 | 0 | 0.0 | 0.0 | 0.00 | 0.00 | 0.00 | 76 | 1018.5 |
| 20260507035523 | 47 | 0 | 0.0 | 0.0 | 0.00 | 0.00 | 0.00 | 75 | 1018.6 |
| 20260507035022 | 47 | 0 | 0.0 | 0.0 | 0.00 | 0.00 | 0.00 | 75 | 1018.5 |
| 20260507034538 | 47 | 0 | 0.0 | 0.0 | 0.00 | 0.00 | 0.00 | 74 | 1018.7 |
| 20260507034024 | 47 | 0 | 0.0 | 0.0 | 0.00 | 0.00 | 0.00 | 73 | 1018.7 |
| 20260507033526 | 47 | 0 | 0.0 | 0.0 | 0.00 | 0.00 | 0.00 | 71 | 1018.8 |
| 20260507033035 | 47 | 0 | 0.0 | 0.0 | 0.00 | 0.00 | 0.00 | 71 | 1018.8 |
| 20260507032523 | 47 | 0 | 0.0 | 0.0 | 0.00 | 0.00 | 0.00 | 71 | 1018.9 |
| 20260507032024 | 47 | 0 | 0.0 | 0.0 | 0.00 | 0.00 | 0.00 | 69 | 1018.9 |
| 20260507031535 | 47 | 0 | 0.0 | 0.0 | 0.00 | 0.00 | 0.00 | 68 | 1018.7 |
| 20260507031023 | 48 | 0 | 0.0 | 0.0 | 0.00 | 0.00 | 0.00 | 66 | 1018.7 |
| 20260507030524 | 48 | 0 | 0.0 | 0.0 | 0.00 | 0.00 | 0.00 | 65 | 1018.7 |
| 20260507030037 | 48 | 0 | 0.0 | 0.0 | 0.00 | 0.00 | 0.00 | 64 | 1018.5 |
| 20260507025522 | 48 | 0 | 0.0 | 0.0 | 0.00 | 0.00 | 0.00 | 62 | 1018.6 |
| 20260507025023 | 49 | 0 | 0.0 | 0.0 | 0.00 | 0.00 | 0.00 | 62 | 1018.6 |
| 20260507024535 | 49 | 0 | 0.0 | 0.0 | 0.00 | 0.00 | 0.00 | 61 | 1018.6 |
| 20260507024024 | 49 | 0 | 0.0 | 0.0 | 0.00 | 0.00 | 0.00 | 60 | 1018.6 |
| 20260507023524 | 49 | 0 | 0.0 | 0.0 | 0.00 | 0.00 | 0.00 | 58 | 1018.5 |
| 20260507023042 | 49 | 0 | 0.0 | 0.0 | 0.00 | 0.00 | 0.00 | 60 | 1018.4 |
| 20260507022523 | 50 | 0 | 0.0 | 0.0 | 0.00 | 0.00 | 0.00 | 58 | 1018.4 |
| 20260507022022 | 50 | 0 | 0.0 | 0.0 | 0.00 | 0.00 | 0.00 | 58 | 1018.3 |
| 20260507021541 | 50 | 0 | 0.0 | 0.0 | 0.00 | 0.00 | 0.00 | 57 | 1018.2 |
| 20260507021022 | 51 | 0 | 0.0 | 0.0 | 0.00 | 0.00 | 0.00 | 55 | 1018.2 |
| 20260507020522 | 51 | 0 | 0.0 | 0.0 | 0.00 | 0.00 | 0.00 | 55 | 1018.1 |
| 20260507020036 | 51 | 0 | 0.0 | 0.0 | 0.00 | 0.00 | 0.00 | 54 | 1018.0 |
| 20260507015523 | 52 | 0 | 0.0 | 0.0 | 0.00 | 0.00 | 0.00 | 52 | 1018.0 |
| 20260507015027 | 52 | 0 | 0.0 | 0.0 | 0.00 | 0.00 | 0.00 | 50 | 1018.0 |
| 20260507014545 | 53 | 0 | 0.0 | 0.0 | 0.00 | 0.00 | 0.00 | 51 | 1018.0 |
| 20260507014023 | 53 | 0 | 0.0 | 0.0 | 0.00 | 0.00 | 0.00 | 50 | 1018.0 |
| 20260507013522 | 54 | 0 | 0.0 | 0.0 | 0.00 | 0.00 | 0.00 | 49 | 1017.9 |
| 20260507013036 | 55 | 0 | 0.0 | 0.0 | 0.00 | 0.00 | 0.00 | 48 | 1018.0 |
| 20260507012521 | 55 | 0 | 0.0 | 0.0 | 0.00 | 0.00 | 0.00 | 46 | 1017.9 |
| 20260507012024 | 56 | 0 | 0.0 | 0.0 | 0.00 | 0.00 | 0.00 | 45 | 1017.9 |
| 20260507011539 | 56 | 0 | 0.0 | 0.0 | 0.00 | 0.00 | 0.00 | 44 | 1017.9 |
| 20260507011023 | 57 | 0 | 0.0 | 0.0 | 0.00 | 0.00 | 0.00 | 43 | 1017.8 |
| 20260507010523 | 57 | 0 | 0.0 | 0.0 | 0.00 | 0.00 | 0.00 | 41 | 1017.8 |
| 20260507010051 | 58 | 0 | 0.0 | 0.0 | 0.00 | 0.00 | 0.00 | 39 | 1017.7 |
| 20260507005523 | 59 | 0 | 0.0 | 2.0 | 0.00 | 0.00 | 0.00 | 38 | 1017.8 |
| 20260507005024 | 59 | 0 | 0.0 | 2.0 | 0.00 | 0.00 | 0.00 | 37 | 1017.7 |
| 20260507004537 | 59 | 0 | 0.0 | 2.0 | 0.00 | 0.00 | 0.00 | 36 | 1017.7 |
| 20260507004023 | 59 | 0 | 0.0 | 8.0 | 0.00 | 0.00 | 0.00 | 36 | 1017.6 |
| 20260507003524 | 59 | 0 | 0.0 | 8.0 | 0.00 | 0.00 | 0.00 | 37 | 1017.7 |
| 20260507003035 | 60 | 0 | 0.0 | 2.0 | 0.00 | 0.00 | 0.00 | 37 | 1017.7 |
| 20260507002522 | 59 | 0 | 0.0 | 6.0 | 0.00 | 0.00 | 0.00 | 37 | 1017.6 |
| 20260507002028 | 59 | 0 | 1.0 | 7.0 | 0.00 | 0.00 | 0.00 | 36 | 1017.7 |
| 20260507001537 | 60 | 325 | 1.0 | 7.0 | 0.00 | 0.00 | 0.00 | 35 | 1017.7 |
| 20260507001021 | 60 | 286 | 1.0 | 6.0 | 0.00 | 0.00 | 0.00 | 35 | 1017.7 |
| 20260507000522 | 60 | 13 | 1.0 | 6.0 | 0.00 | 0.00 | 0.00 | 36 | 1017.7 |
| 20260507000036 | 60 | 5 | 1.0 | 5.0 | 0.00 | 0.00 | 0.00 | 35 | 1017.7 |
| 20260506235524 | 61 | 290 | 1.0 | 4.0 | 0.00 | 0.00 | 0.00 | 35 | 1017.7 |
| 20260506235021 | 60 | 0 | 0.0 | 4.0 | 0.00 | 0.00 | 0.00 | 36 | 1017.8 |
| 20260506234534 | 60 | 330 | 0.0 | 4.0 | 0.00 | 0.00 | 0.00 | 36 | 1017.9 |
| 20260506234023 | 60 | 330 | 1.0 | 5.0 | 0.00 | 0.00 | 0.00 | 35 | 1018.0 |
| 20260506233524 | 60 | 351 | 1.0 | 6.0 | 0.00 | 0.00 | 0.00 | 36 | 1018.1 |
| 20260506233037 | 60 | 343 | 2.0 | 6.0 | 0.00 | 0.00 | 0.00 | 36 | 1018.0 |
| 20260506232524 | 60 | 5 | 2.0 | 6.0 | 0.00 | 0.00 | 0.00 | 35 | 1018.0 |
| 20260506232024 | 60 | 330 | 1.0 | 8.0 | 0.00 | 0.00 | 0.00 | 36 | 1018.0 |
| 20260506231538 | 60 | 18 | 2.0 | 9.0 | 0.00 | 0.00 | 0.00 | 35 | 1018.0 |
| 20260506231024 | 60 | 306 | 1.0 | 15.0 | 0.00 | 0.00 | 0.00 | 37 | 1018.0 |
| 20260506230522 | 60 | 308 | 3.0 | 15.0 | 0.00 | 0.00 | 0.00 | 36 | 1018.1 |
| 20260506230052 | 60 | 315 | 3.0 | 9.0 | 0.00 | 0.00 | 0.00 | 36 | 1018.0 |
| 20260506225523 | 60 | 5 | 2.0 | 11.0 | 0.00 | 0.00 | 0.00 | 36 | 1018.1 |
| 20260506225022 | 59 | 20 | 2.0 | 11.0 | 0.00 | 0.00 | 0.00 | 38 | 1018.1 |
| 20260506224541 | 60 | 31 | 4.0 | 11.0 | 0.00 | 0.00 | 0.00 | 35 | 1018.0 |
| 20260506224023 | 60 | 294 | 3.0 | 10.0 | 0.00 | 0.00 | 0.00 | 36 | 1017.9 |
| 20260506223521 | 60 | 302 | 3.0 | 10.0 | 0.00 | 0.00 | 0.00 | 36 | 1018.0 |
| 20260506223035 | 60 | 304 | 2.0 | 9.0 | 0.00 | 0.00 | 0.00 | 35 | 1018.0 |
| 20260506222522 | 60 | 323 | 2.0 | 12.0 | 0.00 | 0.00 | 0.00 | 35 | 1017.8 |
| 20260506222023 | 60 | 275 | 3.0 | 14.0 | 0.00 | 0.00 | 0.00 | 36 | 1017.8 |
| 20260506221541 | 60 | 343 | 3.0 | 14.0 | 0.00 | 0.00 | 0.00 | 36 | 1018.0 |
| 20260506221021 | 60 | 22 | 1.0 | 7.0 | 0.00 | 0.00 | 0.00 | 37 | 1017.9 |
| 20260506220523 | 60 | 290 | 1.0 | 9.0 | 0.00 | 0.00 | 0.00 | 36 | 1018.0 |
| 20260506220050 | 59 | 299 | 3.0 | 9.0 | 0.00 | 0.00 | 0.00 | 37 | 1018.0 |
| 20260506215526 | 59 | 294 | 2.0 | 8.0 | 0.00 | 0.00 | 0.00 | 37 | 1018.0 |
| 20260506215024 | 59 | 321 | 1.0 | 7.0 | 0.00 | 0.00 | 0.00 | 37 | 1018.0 |
| 20260506214538 | 59 | 283 | 2.0 | 12.0 | 0.00 | 0.00 | 0.00 | 35 | 1018.0 |
| 20260506214022 | 59 | 296 | 3.0 | 12.0 | 0.00 | 0.00 | 0.00 | 36 | 1018.0 |
| 20260506213524 | 60 | 39 | 4.0 | 12.0 | 0.00 | 0.00 | 0.00 | 37 | 1018.1 |
| 20260506213039 | 59 | 18 | 5.0 | 10.0 | 0.00 | 0.00 | 0.00 | 34 | 1018.1 |
| 20260506212523 | 60 | 0 | 2.0 | 11.0 | 0.00 | 0.00 | 0.00 | 35 | 1018.2 |
| 20260506212025 | 60 | 317 | 3.0 | 11.0 | 0.00 | 0.00 | 0.00 | 37 | 1018.3 |
| 20260506211536 | 60 | 352 | 4.0 | 15.0 | 0.00 | 0.00 | 0.00 | 35 | 1018.3 |
| 20260506211024 | 59 | 300 | 3.0 | 15.0 | 0.00 | 0.00 | 0.00 | 37 | 1018.4 |
| 20260506210521 | 59 | 304 | 2.0 | 11.0 | 0.00 | 0.00 | 0.00 | 36 | 1018.3 |
| 20260506210052 | 60 | 292 | 5.0 | 11.0 | 0.00 | 0.00 | 0.00 | 37 | 1018.4 |
| 20260506205523 | 61 | 19 | 1.0 | 12.0 | 0.00 | 0.00 | 0.00 | 38 | 1018.5 |
| 20260506205023 | 60 | 18 | 3.0 | 12.0 | 0.00 | 0.00 | 0.00 | 38 | 1018.6 |
| 20260506204538 | 59 | 69 | 4.0 | 12.0 | 0.00 | 0.00 | 0.00 | 36 | 1018.6 |
| 20260506204023 | 60 | 348 | 2.0 | 13.0 | 0.00 | 0.00 | 0.00 | 39 | 1018.7 |
| 20260506203524 | 59 | 0 | 3.0 | 13.0 | 0.00 | 0.00 | 0.00 | 36 | 1018.8 |
| 20260506203036 | 59 | 34 | 3.0 | 10.0 | 0.00 | 0.00 | 0.00 | 36 | 1019.0 |
| 20260506202524 | 59 | 298 | 4.0 | 15.0 | 0.00 | 0.00 | 0.00 | 36 | 1018.9 |
| 20260506202024 | 59 | 355 | 5.0 | 15.0 | 0.00 | 0.00 | 0.00 | 37 | 1019.1 |
| 20260506201542 | 59 | 344 | 4.0 | 9.0 | 0.00 | 0.00 | 0.00 | 35 | 1019.1 |
| 20260506201024 | 59 | 0 | 2.0 | 9.0 | 0.00 | 0.00 | 0.00 | 38 | 1019.1 |
| 20260506200523 | 59 | 33 | 3.0 | 9.0 | 0.00 | 0.00 | 0.00 | 36 | 1019.1 |
| 20260506200037 | 58 | 313 | 1.0 | 9.0 | 0.00 | 0.00 | 0.00 | 37 | 1019.1 |
| 20260506195524 | 58 | 24 | 3.0 | 11.0 | 0.00 | 0.00 | 0.00 | 35 | 1019.2 |
| 20260506195023 | 58 | 343 | 4.0 | 11.0 | 0.00 | 0.00 | 0.00 | 37 | 1019.2 |
| 20260506194535 | 59 | 5 | 4.0 | 11.0 | 0.00 | 0.00 | 0.00 | 36 | 1019.2 |
| 20260506194027 | 59 | 314 | 2.0 | 8.0 | 0.00 | 0.00 | 0.00 | 37 | 1019.2 |
| 20260506193523 | 58 | 56 | 2.0 | 13.0 | 0.00 | 0.00 | 0.00 | 36 | 1019.2 |
| 20260506193035 | 58 | 26 | 5.0 | 13.0 | 0.00 | 0.00 | 0.00 | 37 | 1019.3 |
| 20260506192524 | 58 | 348 | 2.0 | 11.0 | 0.00 | 0.00 | 0.00 | 35 | 1019.2 |
| 20260506192028 | 58 | 5 | 2.0 | 11.0 | 0.00 | 0.00 | 0.00 | 38 | 1019.2 |